When you browse on this site, cookies collect data to enhance your experience and personalize the content and advertising you see.
Visit our Privacy Policy to learn more. By continuing to use the site, you agree to this use of cookies and data.
  • In Slovakia
  • List of Countries
  • For 7 days
  • Water Temperature
  • Weather Map
  • Weather Widgets
  • user-avatar
    Login

    Hourly Weather Parakou

    Today, 25 August, Sunday

    Time Temperature Precipitation Wind Pressure Humidity
    00:00 +24°C° 0 mm 2 mps 730 mmHg 93%
    01:00 +23°C° 1 mm 2 mps 729 mmHg 95%
    02:00 +23°C° 1 mm 1 mps 729 mmHg 96%
    03:00 +23°C° 1 mm 1 mps 729 mmHg 98%
    04:00 +23°C° 1 mm 1 mps 729 mmHg 98%
    05:00 +23°C° 1 mm 1 mps 729 mmHg 98%
    06:00 +23°C° 0 mm 1 mps 729 mmHg 99%
    07:00 +23°C° 0.1 mm 2 mps 730 mmHg 96%
    08:00 +24°C° 0.1 mm 2 mps 730 mmHg 93%
    09:00 +25°C° 0.1 mm 3 mps 731 mmHg 90%
    10:00 +26°C° 0.4 mm 3 mps 730 mmHg 85%
    11:00 +27°C° 0.4 mm 3 mps 730 mmHg 80%
    12:00 +27°C° 0 mm 3 mps 729 mmHg 81%
    13:00 +27°C° 0.1 mm 2 mps 729 mmHg 81%
    14:00 +27°C° 0.1 mm 2 mps 728 mmHg 81%
    15:00 +27°C° 0.1 mm 2 mps 727 mmHg 81%
    16:00 +26°C° 0 mm 1 mps 728 mmHg 84%
    17:00 +26°C° 0 mm 1 mps 728 mmHg 87%
    18:00 +25°C° 0 mm 1 mps 728 mmHg 90%
    19:00 +25°C° 0.2 mm 1 mps 729 mmHg 92%
    20:00 +24°C° 0.2 mm 1 mps 729 mmHg 94%
    21:00 +24°C° 0.2 mm 1 mps 729 mmHg 95%
    22:00 +24°C° 0 mm 1 mps 729 mmHg 96%
    23:00 +23°C° 0 mm 1 mps 729 mmHg 97%

    Tomorrow, 26 August, Monday

    Time Temperature Precipitation Wind Pressure Humidity
    00:00 +23°C° 0 mm 1 mps 729 mmHg 98%
    01:00 +23°C° 0 mm 1 mps 729 mmHg 98%
    02:00 +23°C° 0 mm 1 mps 729 mmHg 98%
    03:00 +23°C° 0 mm 2 mps 729 mmHg 98%
    04:00 +23°C° 0 mm 2 mps 729 mmHg 98%
    05:00 +23°C° 0 mm 2 mps 729 mmHg 98%
    06:00 +23°C° 0 mm 2 mps 729 mmHg 98%
    07:00 +24°C° 0 mm 2 mps 730 mmHg 96%
    08:00 +24°C° 0 mm 2 mps 730 mmHg 94%
    09:00 +25°C° 0 mm 2 mps 730 mmHg 92%
    10:00 +26°C° 0.3 mm 2 mps 730 mmHg 88%
    11:00 +27°C° 0.3 mm 3 mps 729 mmHg 83%
    12:00 +28°C° 0.3 mm 3 mps 729 mmHg 79%
    13:00 +29°C° 0.7 mm 3 mps 728 mmHg 79%
    14:00 +29°C° 0.7 mm 3 mps 728 mmHg 79%
    15:00 +29°C° 0.7 mm 3 mps 727 mmHg 79%
    16:00 +28°C° 1.7 mm 2 mps 727 mmHg 83%
    17:00 +27°C° 1.7 mm 2 mps 727 mmHg 88%
    18:00 +25°C° 1.7 mm 2 mps 727 mmHg 92%
    19:00 +25°C° 1 mm 2 mps 728 mmHg 92%
    20:00 +25°C° 1 mm 2 mps 729 mmHg 92%
    21:00 +24°C° 1 mm 2 mps 729 mmHg 93%
    22:00 +24°C° 1.2 mm 2 mps 729 mmHg 94%
    23:00 +24°C° 1.2 mm 2 mps 729 mmHg 95%

    Day after tomorrow, 27 August, Tuesday

    Time Temperature Precipitation Wind Pressure Humidity
    00:00 +24°C° 1.2 mm 1 mps 729 mmHg 96%
    01:00 +24°C° 0.3 mm 2 mps 729 mmHg 96%
    02:00 +23°C° 0.3 mm 2 mps 729 mmHg 97%
    03:00 +23°C° 0.3 mm 2 mps 728 mmHg 98%
    04:00 +23°C° 0.1 mm 2 mps 729 mmHg 98%
    05:00 +23°C° 0.1 mm 2 mps 729 mmHg 98%
    06:00 +23°C° 0.1 mm 1 mps 729 mmHg 98%
    07:00 +23°C° 0.1 mm 2 mps 730 mmHg 97%
    08:00 +24°C° 0.1 mm 2 mps 730 mmHg 96%
    09:00 +24°C° 0.1 mm 2 mps 731 mmHg 95%
    10:00 +24°C° 0.1 mm 2 mps 730 mmHg 93%
    11:00 +25°C° 0.1 mm 2 mps 730 mmHg 92%
    12:00 +25°C° 0.1 mm 2 mps 730 mmHg 90%
    13:00 +25°C° 0.2 mm 1 mps 729 mmHg 90%
    14:00 +25°C° 0.2 mm 1 mps 728 mmHg 90%
    15:00 +25°C° 0.2 mm 1 mps 727 mmHg 90%
    16:00 +25°C° 0 mm 1 mps 728 mmHg 91%
    17:00 +25°C° 0 mm 1 mps 728 mmHg 93%
    18:00 +24°C° 0 mm 1 mps 728 mmHg 94%
    19:00 +24°C° 0 mm 1 mps 728 mmHg 95%
    20:00 +24°C° 0 mm 1 mps 729 mmHg 96%
    21:00 +24°C° 0 mm 1 mps 730 mmHg 97%
    22:00 +23°C° 0 mm 1 mps 729 mmHg 97%
    23:00 +23°C° 0 mm 1 mps 729 mmHg 98%

    28 August, Wednesday

    Time Temperature Precipitation Wind Pressure Humidity
    00:00 +23°C° 0 mm 1 mps 729 mmHg 98%
    01:00 +23°C° 0 mm 1 mps 729 mmHg 98%
    02:00 +23°C° 0 mm 2 mps 728 mmHg 98%
    03:00 +21°C° 0 mm 2 mps 728 mmHg 98%
    04:00 +23°C° 0 mm 2 mps 728 mmHg 98%
    05:00 +23°C° 0 mm 2 mps 729 mmHg 98%
    06:00 +23°C° 0 mm 2 mps 729 mmHg 97%
    07:00 +24°C° 0 mm 2 mps 729 mmHg 94%
    08:00 +25°C° 0 mm 2 mps 730 mmHg 90%
    09:00 +25°C° 0 mm 3 mps 730 mmHg 86%
    10:00 +26°C° 0.8 mm 3 mps 730 mmHg 86%
    11:00 +27°C° 0.8 mm 3 mps 729 mmHg 86%
    12:00 +27°C° 0.8 mm 3 mps 729 mmHg 85%
    13:00 +28°C° 0.8 mm 3 mps 728 mmHg 83%
    14:00 +28°C° 0.8 mm 3 mps 728 mmHg 82%
    15:00 +29°C° 0.8 mm 3 mps 727 mmHg 80%
    16:00 +27°C° 1.5 mm 2 mps 727 mmHg 84%
    17:00 +26°C° 1.5 mm 2 mps 727 mmHg 89%
    18:00 +25°C° 1.5 mm 2 mps 727 mmHg 93%
    19:00 +25°C° 1.1 mm 2 mps 728 mmHg 93%
    20:00 +24°C° 1.1 mm 2 mps 729 mmHg 94%
    21:00 +24°C° 1.1 mm 2 mps 730 mmHg 94%
    22:00 +24°C° 0.3 mm 2 mps 729 mmHg 95%
    23:00 +24°C° 0.3 mm 1 mps 729 mmHg 95%

    29 August, Thursday

    Time Temperature Precipitation Wind Pressure Humidity
    00:00 +23°C° 0.3 mm 1 mps 729 mmHg 96%
    01:00 +23°C° 0 mm 1 mps 729 mmHg 97%
    02:00 +23°C° 0 mm 1 mps 729 mmHg 97%
    03:00 +21°C° 0 mm 0 mps 728 mmHg 97%
    04:00 +21°C° 0.2 mm 0 mps 729 mmHg 97%
    05:00 +21°C° 0.2 mm 0 mps 729 mmHg 97%
    06:00 +21°C° 0.2 mm 0 mps 729 mmHg 97%
    07:00 +24°C° 0.5 mm 1 mps 730 mmHg 95%
    08:00 +25°C° 0.5 mm 1 mps 730 mmHg 93%
    09:00 +26°C° 0.5 mm 2 mps 730 mmHg 91%
    10:00 +26°C° 1.7 mm 2 mps 730 mmHg 89%
    11:00 +27°C° 1.7 mm 1 mps 729 mmHg 87%
    12:00 +28°C° 1.7 mm 1 mps 729 mmHg 84%
    13:00 +28°C° 1.1 mm 1 mps 728 mmHg 85%
    14:00 +27°C° 1.1 mm 1 mps 728 mmHg 86%
    15:00 +27°C° 1.1 mm 1 mps 727 mmHg 87%
    16:00 +27°C° 1.2 mm 1 mps 727 mmHg 88%
    17:00 +26°C° 1.2 mm 1 mps 727 mmHg 90%
    18:00 +25°C° 1.2 mm 1 mps 728 mmHg 92%
    19:00 +25°C° 1.3 mm 1 mps 728 mmHg 93%
    20:00 +25°C° 1.3 mm 1 mps 729 mmHg 94%
    21:00 +24°C° 1.3 mm 2 mps 729 mmHg 95%
    22:00 +24°C° 0.5 mm 1 mps 729 mmHg 95%
    23:00 +24°C° 0.5 mm 1 mps 729 mmHg 96%

    30 August, Friday

    Time Temperature Precipitation Wind Pressure Humidity
    00:00 +24°C° 0.5 mm 1 mps 729 mmHg 97%
    01:00 +24°C° 0.1 mm 1 mps 729 mmHg 97%
    02:00 +22°C° 0.1 mm 0 mps 729 mmHg 97%
    03:00 +21°C° 0.1 mm 0 mps 728 mmHg 97%
    04:00 +21°C° 0.1 mm 0 mps 729 mmHg 97%
    05:00 +21°C° 0.1 mm 0 mps 729 mmHg 97%
    06:00 +21°C° 0.1 mm 0 mps 729 mmHg 97%
    07:00 +22°C° 0 mm 0 mps 730 mmHg 96%
    08:00 +22°C° 0 mm 0 mps 730 mmHg 95%
    09:00 +23°C° 0 mm 0 mps 730 mmHg 94%
    10:00 +23°C° 0 mm 0 mps 730 mmHg 92%
    11:00 +24°C° 0 mm 0 mps 729 mmHg 89%
    12:00 +25°C° 0 mm 0 mps 729 mmHg 86%
    13:00 +25°C° 0 mm 0 mps 728 mmHg 83%
    14:00 +26°C° 0 mm 0 mps 728 mmHg 80%
    15:00 +28°C° 0 mm 1 mps 727 mmHg 77%
    16:00 +27°C° 0.4 mm 1 mps 727 mmHg 82%
    17:00 +26°C° 0.4 mm 1 mps 727 mmHg 86%
    18:00 +25°C° 0.4 mm 1 mps 727 mmHg 90%
    19:00 +23°C° 0.3 mm 0 mps 728 mmHg 92%
    20:00 +22°C° 0.3 mm 0 mps 728 mmHg 93%
    21:00 +22°C° 0.3 mm 0 mps 728 mmHg 95%
    22:00 +22°C° 0.2 mm 0 mps 728 mmHg 95%
    23:00 +22°C° 0.2 mm 0 mps 728 mmHg 96%
    Show more